EW6790 Weather Reports


time (UTC)temp
C
wind
direction
speed
KPH
gust
KPH
rain 1hr
cm
rain 24hr
cm
rain mn
cm
humidity
%
barometer
mb
20260508153042 18 261 14.5 27.4 0.00 0.00 0.00 27 1007.2
20260508151531 17 221 17.7 29.0 0.00 0.00 0.00 28 1007.3
20260508150012 17 250 19.3 29.0 0.00 0.00 0.00 29 1007.6
20260508144507 16 220 16.1 30.6 0.00 0.00 0.00 31 1007.7
20260508143050 16 299 19.3 32.2 0.00 0.00 0.00 33 1007.9
20260508141548 15 250 14.5 29.0 0.00 0.00 0.00 33 1008.0
20260508140034 15 193 19.3 32.2 0.00 0.00 0.00 36 1008.0
20260508134529 14 231 16.1 27.4 0.00 0.00 0.00 37 1008.2
20260508133013 12 221 12.9 24.1 0.00 0.00 0.00 40 1008.3
20260508131511 12 186 14.5 22.5 0.00 0.00 0.00 40 1008.4
20260508130054 11 179 16.1 22.5 0.00 0.00 0.00 41 1008.5
20260508124553 10 192 11.3 17.7 0.00 0.00 0.00 47 1008.4
20260508123056 8 193 14.5 19.3 0.00 0.00 0.00 48 1008.4
20260508121554 -17 0.0 0.0 0.00 0.00 0.00 1008.4
20260508120049 -17 0.0 0.0 0.00 0.00 0.00 1008.4
20260508114541 -17 0.0 0.0 0.00 0.00 0.00 1008.3
20260508113039 -17 0.0 0.0 0.00 0.00 0.00 1008.2
20260508111533 -17 0.0 0.0 0.00 0.00 0.00 1008.3
20260508110013 5 195 14.5 17.7 0.00 0.00 0.00 55 1008.4
20260508104511 5 203 14.5 17.7 0.00 0.00 0.00 54 1008.4
20260508103051 5 202 9.7 14.5 0.00 0.00 0.00 55 1008.4
20260508101549 5 203 9.7 12.9 0.00 0.00 0.00 54 1008.6
20260508100029 5 210 9.7 16.1 0.00 0.00 0.00 52 1008.6
20260508094528 6 183 9.7 16.1 0.00 0.00 0.00 49 1008.7
20260508093011 6 175 12.9 19.3 0.00 0.00 0.00 50 1008.7
20260508091507 6 140 9.7 14.5 0.00 0.00 0.00 51 1008.7
20260508090049 6 169 9.7 14.5 0.00 0.00 0.00 50 1008.7
20260508084548 6 173 9.7 14.5 0.00 0.00 0.00 50 1008.8
20260508083029 6 177 11.3 12.9 0.00 0.00 0.00 50 1008.8
20260508081533 6 169 9.7 12.9 0.00 0.00 0.00 48 1008.9
20260508080012 6 182 8.0 0.0 0.00 0.00 0.00 51 1009.0
20260508074507 5 181 6.4 9.7 0.00 0.00 0.00 54 1009.2
20260508073105 5 186 3.2 6.4 0.00 0.00 0.00 54 1009.3
20260508071544 6 191 3.2 6.4 0.00 0.00 0.00 50 1009.3
20260508070046 6 214 1.6 4.8 0.00 0.00 0.00 49 1009.4
20260508064524 6 215 1.6 3.2 0.00 0.00 0.00 52 1009.4
20260508063020 6 155 1.6 4.8 0.00 0.00 0.00 48 1009.5
20260508061503 7 170 1.6 3.2 0.00 0.00 0.00 45 1009.6
20260508060107 8 153 1.6 3.2 0.00 0.00 0.00 43 1009.6
20260508054600 8 171 1.6 3.2 0.00 0.00 0.00 42 1009.7
20260508053104 10 134 1.6 4.8 0.00 0.00 0.00 37 1009.8
20260508051600 10 129 3.2 4.8 0.00 0.00 0.00 36 1009.9
20260508050057 10 131 3.2 4.8 0.00 0.00 0.00 35 1009.9
20260508044606 10 117 0.0 0.0 0.00 0.00 0.00 35 1010.0
20260508041537 10 127 0.0 0.0 0.00 0.00 0.00 36 1010.0
20260508040037 10 127 0.0 0.0 0.00 0.00 0.00 35 1010.1
20260508034519 10 128 0.0 0.0 0.00 0.00 0.00 36 1010.0
20260508033021 9 133 0.0 1.6 0.00 0.00 0.00 38 1010.1
20260508031505 10 131 0.0 3.2 0.00 0.00 0.00 35 1009.9
20260508030002 11 326 0.0 1.6 0.00 0.00 0.00 33 1009.9
20260508024601 11 326 0.0 0.0 0.00 0.00 0.00 33 1009.8
20260508023057 11 326 0.0 0.0 0.00 0.00 0.00 31 1009.7
20260508021558 12 326 0.0 0.0 0.00 0.00 0.00 30 1009.6
20260508020056 12 326 0.0 0.0 0.00 0.00 0.00 30 1009.4
20260508014556 13 345 1.6 4.8 0.00 0.00 0.00 29 1009.2
20260508013056 13 322 3.2 4.8 0.00 0.00 0.00 29 1009.1
20260508011543 14 329 3.2 6.4 0.00 0.00 0.00 28 1009.0
20260508010039 15 325 0.0 6.4 0.00 0.00 0.00 27 1008.8
20260508004525 16 321 1.6 8.0 0.00 0.00 0.00 27 1008.8
20260508003019 16 290 1.6 12.9 0.00 0.00 0.00 26 1008.8
20260508001501 17 329 4.8 16.1 0.00 0.00 0.00 24 1008.9
20260508000100 17 315 6.4 16.1 0.00 0.00 0.00 24 1008.9
20260508000006 17 336 4.8 14.5 0.00 0.00 0.00 24 1008.9
20260507234549 17 269 4.8 14.5 0.00 0.00 0.00 24 1008.9
20260507233042 17 294 4.8 14.5 0.00 0.00 0.00 24 1009.1
20260507231533 17 300 4.8 16.1 0.00 0.00 0.00 24 1009.1
20260507230020 17 292 6.4 11.3 0.00 0.00 0.00 23 1009.1
20260507224603 16 275 6.4 17.7 0.00 0.00 0.00 24 1009.3
20260507223110 17 282 6.4 19.3 0.00 0.00 0.00 24 1009.4
20260507221541 17 291 6.4 17.7 0.00 0.00 0.00 24 1009.5
20260507220038 17 320 4.8 16.1 0.00 0.00 0.00 24 1009.6
20260507214520 17 330 8.0 24.1 0.00 0.00 0.00 24 1009.7
20260507213024 16 318 8.0 17.7 0.00 0.00 0.00 25 1009.7
20260507211559 16 257 6.4 17.7 0.00 0.00 0.00 25 1009.8
20260507210057 16 322 3.2 20.9 0.00 0.00 0.00 25 1009.9
20260507204536 15 291 6.4 22.5 0.00 0.00 0.00 26 1010.1
20260507203040 16 264 8.0 22.5 0.00 0.00 0.00 26 1010.2
20260507201516 15 326 3.2 12.9 0.00 0.00 0.00 28 1010.4
20260507200013 15 314 6.4 22.5 0.00 0.00 0.00 26 1010.5
20260507194552 15 328 8.0 17.7 0.00 0.00 0.00 28 1010.7
20260507193058 15 287 17.7 25.7 0.00 0.00 0.00 27 1010.7
20260507191533 15 326 9.7 20.9 0.00 0.00 0.00 28 1010.8
20260507190033 15 266 4.8 12.9 0.00 0.00 0.00 31 1010.8
20260507184513 14 344 6.4 19.3 0.00 0.00 0.00 30 1010.9
20260507183028 14 278 3.2 22.5 0.00 0.00 0.00 30 1010.9
20260507181557 13 328 3.2 17.7 0.00 0.00 0.00 30 1011.0
20260507180053 13 330 3.2 14.5 0.00 0.00 0.00 32 1011.1
20260507174604 13 326 9.7 19.3 0.00 0.00 0.00 32 1011.2
20260507173057 13 300 3.2 11.3 0.00 0.00 0.00 32 1011.6
20260507171605 12 330 6.4 14.5 0.00 0.00 0.00 34 1011.8
20260507170044 12 11 1.6 12.9 0.00 0.00 0.00 35 1011.8
20260507164559 12 86 1.6 17.7 0.00 0.00 0.00 38 1011.8
20260507163040 12 105 3.2 16.1 0.00 0.00 0.00 37 1012.0
20260507161533 11 33 1.6 16.1 0.00 0.00 0.00 43 1012.0
20260507160020 11 210 3.2 14.5 0.00 0.00 0.00 41 1012.0
20260507154559 11 94 4.8 12.9 0.00 0.00 0.00 44 1012.0